Weather History for Cook, MN

Change the Weather History Date:

Sunday, February 26, 2012

  Actual Average Record
Temperature  
Mean Temperature 20 °F -  
Max Temperature 26 °F 26 °F 46 °F (2004)
Min Temperature 14 °F 6 °F -32 °F (2011)
Degree Days  
Heating Degree Days 45    
Moisture  
Dew Point 18 °F    
Average Humidity 87    
Maximum Humidity 93    
Minimum Humidity 79    
Precipitation  
Precipitation 0.01 in - - ()
Sea Level Pressure  
Sea Level Pressure 29.85 in    
Wind  
Wind Speed 6 mph (ENE)    
Max Wind Speed 15 mph    
Max Gust Speed 22 mph    
Visibility 4 miles    
Events Snow    
Averages and records for this station are not official NWS values.
T = Trace of Precipitation, MM = Missing Value Source: NWS Daily Summary

Daily Weather History Graph

Daily Weather History Graph

Search for Another Location

Airport:

Trip Planner

Search our weather history database for the weather conditions in past years. The results will help you decide how hot, cold, wet, or windy it might be!

Date:

Astronomy

Feb. 26, 2012 Rise Set
Actual Time 6:58 AM CST 5:50 PM CST
Civil Twilight 6:26 AM CST 6:21 PM CST
Nautical Twilight 5:51 AM CST 6:57 PM CST
Astronomical Twilight 5:15 AM CST 7:33 PM CST
Moon 8:28 AM CST (2/26) 11:16 PM CST (2/26)
Length of Visible Light 11h 54m
Length of Day
10h 52m
Waxing Crescent, 21% of the Moon is Illuminated
Feb 26
Waxing Crescent
Feb 29
First Quarter
Mar 8
Full
Mar 14
Last Quarter
Mar 22
New

Hourly Weather History & Observations

Time (CST) Temp. Windchill Dew Point Humidity Pressure Visibility Wind Dir Wind Speed Gust Speed Precip Events Conditions
12:36 AM 14.0 °F 8.2 °F 10.4 °F 86% 30.09 in 10.0 mi East 3.5 mph - N/A   Scattered Clouds
1:16 AM 14.0 °F 6.5 °F 10.4 °F 86% 30.08 in 10.0 mi East 4.6 mph - N/A   Overcast
1:36 AM 15.8 °F 8.6 °F 10.4 °F 79% 30.07 in 10.0 mi East 4.6 mph - N/A   Overcast
1:57 AM 15.8 °F 8.6 °F 10.4 °F 79% 30.07 in 10.0 mi East 4.6 mph - N/A   Overcast
2:16 AM 15.8 °F 8.6 °F 10.4 °F 79% 30.06 in 10.0 mi ENE 4.6 mph - N/A   Overcast
2:57 AM 15.8 °F 10.2 °F 12.2 °F 86% 30.05 in 10.0 mi East 3.5 mph - N/A   Overcast
3:36 AM 15.8 °F 7.2 °F 12.2 °F 86% 30.02 in 10.0 mi East 5.8 mph - N/A   Overcast
3:57 AM 17.6 °F 10.7 °F 12.2 °F 79% 30.00 in 10.0 mi East 4.6 mph - N/A   Overcast
4:16 AM 17.6 °F 10.7 °F 14.0 °F 86% 30.00 in 10.0 mi East 4.6 mph - N/A   Overcast
4:36 AM 17.6 °F 10.7 °F 14.0 °F 86% 29.99 in 10.0 mi ENE 4.6 mph - N/A   Overcast
4:57 AM 17.6 °F 10.7 °F 14.0 °F 86% 29.98 in 10.0 mi ENE 4.6 mph - N/A   Overcast
5:16 AM 17.6 °F 9.3 °F 15.8 °F 93% 29.97 in 10.0 mi ENE 5.8 mph - N/A   Overcast
5:57 AM 19.4 °F 11.5 °F 15.8 °F 86% 29.94 in 5.0 mi East 5.8 mph - N/A Snow Light Snow
6:36 AM 19.4 °F 10.4 °F 17.6 °F 93% 29.92 in 1.2 mi ENE 6.9 mph - N/A Snow Light Snow
6:57 AM 19.4 °F 10.4 °F 17.6 °F 93% 29.90 in 2.5 mi ENE 6.9 mph - N/A Snow Light Snow
7:37 AM 21.2 °F 10.9 °F 17.6 °F 86% 29.88 in 1.0 mi East 9.2 mph - N/A Snow Light Snow
7:56 AM 21.2 °F 10.9 °F 19.4 °F 93% 29.86 in 3.0 mi East 9.2 mph 20.7 mph N/A Snow Light Snow
8:56 AM 21.2 °F 11.7 °F 19.4 °F 93% 29.86 in 1.5 mi East 8.1 mph - N/A Snow Light Snow
9:17 AM 21.2 °F 11.7 °F 19.4 °F 93% 29.86 in 0.8 mi East 8.1 mph 18.4 mph N/A Snow Light Snow
9:36 AM 23.0 °F 13.9 °F 19.4 °F 86% 29.85 in 0.5 mi East 8.1 mph - N/A Snow Snow
9:55 AM 23.0 °F 13.9 °F 21.2 °F 93% 29.83 in 0.2 mi East 8.1 mph - 0.01 in Snow Snow
10:17 AM 23.0 °F 12.4 °F 21.2 °F 93% 29.81 in 0.2 mi ENE 10.4 mph 16.1 mph N/A Snow Snow
10:36 AM 23.0 °F 12.4 °F 21.2 °F 93% 29.80 in 0.5 mi ENE 10.4 mph 18.4 mph N/A Snow Light Snow
10:56 AM 23.0 °F 11.1 °F 21.2 °F 93% 29.78 in 0.8 mi ENE 12.7 mph 19.6 mph N/A Snow Light Snow
11:17 AM 24.8 °F 15.3 °F 21.2 °F 86% 29.78 in 0.5 mi East 9.2 mph 18.4 mph N/A Snow Light Snow
11:36 AM 24.8 °F 16.1 °F 21.2 °F 86% 29.78 in 0.5 mi East 8.1 mph 17.3 mph N/A Snow Light Snow
11:57 AM 24.8 °F 15.3 °F 21.2 °F 86% 29.77 in 0.8 mi East 9.2 mph 17.3 mph N/A Snow Light Snow
12:17 PM 26.6 °F 16.8 °F 21.2 °F 80% 29.76 in 1.0 mi East 10.4 mph 18.4 mph N/A Snow Light Snow
12:36 PM 26.6 °F 20.0 °F 23.0 °F 86% 29.75 in 1.2 mi East 5.8 mph - N/A Snow Light Snow
12:57 PM 26.6 °F 20.0 °F 23.0 °F 86% 29.74 in 0.8 mi East 5.8 mph 17.3 mph N/A Snow Light Snow
1:16 PM 26.6 °F 14.7 °F 21.2 °F 80% 29.73 in 1.2 mi East 15.0 mph 20.7 mph N/A Snow Light Snow
1:36 PM 26.6 °F 18.2 °F 23.0 °F 86% 29.73 in 1.0 mi East 8.1 mph 21.9 mph N/A Snow Light Snow
1:57 PM 26.6 °F 16.8 °F 21.2 °F 80% 29.73 in 1.2 mi East 10.4 mph 19.6 mph N/A Snow Light Snow
2:17 PM 26.6 °F 18.2 °F 21.2 °F 80% 29.72 in 1.5 mi East 8.1 mph 20.7 mph N/A Snow Light Snow
2:36 PM 26.6 °F 18.2 °F 21.2 °F 80% 29.73 in 1.8 mi East 8.1 mph 17.3 mph N/A Snow Light Snow
2:57 PM 26.6 °F 18.2 °F 21.2 °F 80% 29.73 in 1.0 mi East 8.1 mph 16.1 mph N/A Snow Light Snow
3:16 PM 26.6 °F 20.0 °F 23.0 °F 86% 29.73 in 1.0 mi East 5.8 mph - N/A Snow Light Snow
3:36 PM 26.6 °F 19.1 °F 23.0 °F 86% 29.73 in 1.0 mi East 6.9 mph - N/A Snow Light Snow
3:57 PM 26.6 °F 20.0 °F 23.0 °F 86% 29.73 in 1.5 mi East 5.8 mph - N/A Snow Light Snow
4:16 PM 26.6 °F 20.0 °F 23.0 °F 86% 29.74 in 1.0 mi ENE 5.8 mph - N/A Snow Light Snow
4:37 PM 26.6 °F 21.2 °F 23.0 °F 86% 29.74 in 1.2 mi NE 4.6 mph - N/A Snow Light Snow
4:56 PM 26.6 °F 22.6 °F 23.0 °F 86% 29.75 in 1.0 mi NE 3.5 mph - N/A Snow Light Snow
5:17 PM 26.6 °F 22.6 °F 23.0 °F 86% 29.75 in 1.0 mi NE 3.5 mph - N/A Snow Light Snow
5:36 PM 24.8 °F 17.9 °F 23.0 °F 93% 29.76 in 2.5 mi North 5.8 mph - N/A Snow Light Snow
5:57 PM 24.8 °F 17.9 °F 21.2 °F 86% 29.76 in 3.0 mi NNE 5.8 mph - N/A Snow Light Snow
6:17 PM 24.8 °F 16.9 °F 21.2 °F 86% 29.77 in 2.0 mi North 6.9 mph - N/A Snow Light Snow
6:36 PM 24.8 °F 17.9 °F 21.2 °F 86% 29.77 in 2.0 mi NNE 5.8 mph - N/A Snow Light Snow
6:57 PM 23.0 °F 14.7 °F 21.2 °F 93% 29.78 in 2.0 mi NNE 6.9 mph - N/A Snow Light Snow
7:16 PM 23.0 °F 13.1 °F 19.4 °F 86% 29.79 in 2.0 mi NNE 9.2 mph 21.9 mph N/A Snow Light Snow
7:36 PM 21.2 °F 13.6 °F 19.4 °F 93% 29.80 in 1.5 mi North 5.8 mph - N/A Snow Light Snow
7:57 PM 21.2 °F 12.6 °F 17.6 °F 86% 29.81 in 2.5 mi NNE 6.9 mph - N/A Snow Light Snow
8:16 PM 19.4 °F 9.5 °F 17.6 °F 93% 29.81 in 2.5 mi NNE 8.1 mph - N/A Snow Light Snow
8:37 PM 19.4 °F 11.5 °F 17.6 °F 93% 29.82 in 3.0 mi NNE 5.8 mph - N/A Snow Light Snow
8:57 PM 19.4 °F 11.5 °F 15.8 °F 86% 29.83 in 2.5 mi NNE 5.8 mph - N/A Snow Light Snow
9:16 PM 17.6 °F 7.3 °F 15.8 °F 93% 29.84 in 5.0 mi NNE 8.1 mph - N/A Snow Light Snow
9:36 PM 17.6 °F 10.7 °F 14.0 °F 86% 29.85 in 10.0 mi NNE 4.6 mph - N/A   Overcast
9:57 PM 15.8 °F 8.6 °F 12.2 °F 86% 29.86 in 10.0 mi North 4.6 mph - N/A   Overcast
10:17 PM 15.8 °F 8.6 °F 12.2 °F 86% 29.87 in 10.0 mi North 4.6 mph - N/A   Overcast
10:36 PM 15.8 °F 8.6 °F 12.2 °F 86% 29.88 in 10.0 mi North 4.6 mph - N/A   Overcast
10:57 PM 15.8 °F 8.6 °F 12.2 °F 86% 29.89 in 4.0 mi North 4.6 mph - N/A Snow Light Snow
11:16 PM 15.8 °F 7.2 °F 12.2 °F 86% 29.90 in 4.0 mi NNW 5.8 mph - N/A Snow Light Snow
11:36 PM 15.8 °F 7.2 °F 12.2 °F 86% 29.91 in 5.0 mi North 5.8 mph - N/A Snow Light Snow
11:57 PM 15.8 °F 7.2 °F 10.4 °F 79% 29.92 in 3.0 mi North 5.8 mph - N/A Snow Light Snow